Location: Powder Track
(41.8531°N, 72.3584°W)
Time: 02:24:00
(UTC+00:00)

Vanguard 1 Rocket - Pass Details

Date: 13 August 2021
Orbit: 650 x 4226 km, 34.3° (Epoch: 16 September)

Event Time Altitude Azimuth Distance (km) Brightness Sun altitude
Rises 08:53:44 0° 200° (SSW) 7,452 11.6 -11.2°
Reaches altitude 10° 08:59:24 10° 191° (S) 6,823 11.5 -10.3°
Maximum altitude 09:19:09 32° 137° (SE) 5,724 11.6 -7.1°
Drops below altitude 10° 09:38:32 10° 85° (E) 6,809 13.3 -3.8°
Sets 09:44:00 0° 77° (ENE) 7,450 14.5 -2.9°
